EZY12JH EGJJ-EGCC

Flight info

Callsign EZY12JH
Flight time 0h 58m
Altitude 28000
Route BENIX G27 AKIKI UN867 AVANT UM184 HEMEL T420 ELVOS
Aircraft A320/M-SDE2E3FGHIJ1RWXYZ/LB1

Departure

Time 2026-05-04 15:39
Airport Jersey Airport (EGJJ)

Arrival

Time 2026-05-04 16:37
Airport Manchester Airport (EGCC)
Time Latitude Longitude Altitude Speed Heading
2026-05-04 15:19 49.20542 -2.19857 280 ft 0 kts 174°
2026-05-04 15:30 49.20598 -2.19856 280 ft 3 kts 216°
2026-05-04 15:30 49.20608 -2.19822 280 ft 0 kts 263°
2026-05-04 15:35 49.20600 -2.19904 280 ft 8 kts 247°
2026-05-04 15:35 49.20557 -2.19931 280 ft 6 kts 184°
2026-05-04 15:35 49.20520 -2.19949 280 ft 5 kts 225°
2026-05-04 15:36 49.20527 -2.20035 280 ft 8 kts 287°
2026-05-04 15:36 49.20554 -2.20174 282 ft 17 kts 286°
2026-05-04 15:36 49.20592 -2.20366 280 ft 20 kts 287°
2026-05-04 15:37 49.20620 -2.20516 285 ft 13 kts 282°
2026-05-04 15:37 49.20630 -2.20644 280 ft 11 kts 276°
2026-05-04 15:37 49.20678 -2.20710 280 ft 11 kts 359°
2026-05-04 15:37 49.20716 -2.20624 279 ft 12 kts 90°
2026-05-04 15:38 49.20719 -2.20486 280 ft 14 kts 82°
2026-05-04 15:38 49.20735 -2.20302 279 ft 27 kts 83°
2026-05-04 15:38 49.20792 -2.19628 282 ft 101 kts 83°
2026-05-04 15:38 49.20922 -2.18253 330 ft 153 kts 83°
2026-05-04 15:39 49.20991 -2.16690 1158 ft 142 kts 85°
2026-05-04 15:39 49.20934 -2.15189 1861 ft 139 kts 88°
2026-05-04 15:39 49.21219 -2.12232 2886 ft 141 kts 76°
2026-05-04 15:40 49.21413 -2.10760 3317 ft 146 kts 79°
2026-05-04 15:40 49.21598 -2.09112 3512 ft 169 kts 80°
2026-05-04 15:40 49.21800 -2.07187 3609 ft 198 kts 81°
2026-05-04 15:40 49.22109 -2.05014 3885 ft 220 kts 68°
2026-05-04 15:41 49.23016 -2.02982 4214 ft 246 kts 47°
2026-05-04 15:41 49.24227 -2.00992 4767 ft 263 kts 48°
2026-05-04 15:41 49.25489 -1.98897 4959 ft 269 kts 49°
2026-05-04 15:41 49.26748 -1.96785 4991 ft 268 kts 49°
2026-05-04 15:42 49.28000 -1.94669 4995 ft 268 kts 49°
2026-05-04 15:42 49.29252 -1.92546 4993 ft 269 kts 49°
2026-05-04 15:42 49.30502 -1.90424 4990 ft 269 kts 49°
2026-05-04 15:42 49.31739 -1.88319 4996 ft 269 kts 49°
2026-05-04 15:43 49.32992 -1.86189 5063 ft 273 kts 49°
2026-05-04 15:43 49.34274 -1.84005 5973 ft 274 kts 49°
2026-05-04 15:43 49.35552 -1.81822 6923 ft 277 kts 50°
2026-05-04 15:43 49.36848 -1.79610 7808 ft 281 kts 49°
2026-05-04 15:44 49.38167 -1.77361 8676 ft 285 kts 49°
2026-05-04 15:44 49.39494 -1.75098 9631 ft 286 kts 49°
2026-05-04 15:44 49.40840 -1.72800 10333 ft 296 kts 49°
2026-05-04 15:44 49.42270 -1.70351 10615 ft 319 kts 50°
2026-05-04 15:45 49.43776 -1.67763 11188 ft 329 kts 50°
2026-05-04 15:45 49.45315 -1.65119 11935 ft 335 kts 50°
2026-05-04 15:45 49.46878 -1.62433 12687 ft 340 kts 50°
2026-05-04 15:45 49.48464 -1.59707 13452 ft 344 kts 50°
2026-05-04 15:46 49.50074 -1.56940 14119 ft 349 kts 50°
2026-05-04 15:46 49.51695 -1.54146 14798 ft 353 kts 50°
2026-05-04 15:46 49.53340 -1.51302 15470 ft 357 kts 50°
2026-05-04 15:46 49.55001 -1.48431 16155 ft 361 kts 50°
2026-05-04 15:47 49.56758 -1.45645 16877 ft 366 kts 42°
2026-05-04 15:47 49.58878 -1.43426 17579 ft 372 kts 29°
2026-05-04 15:47 49.61296 -1.41933 18235 ft 378 kts 17°
2026-05-04 15:47 49.63902 -1.41240 18791 ft 383 kts
2026-05-04 15:48 49.66579 -1.41014 19327 ft 387 kts
2026-05-04 15:48 49.69284 -1.40782 19862 ft 391 kts
2026-05-04 15:48 49.74780 -1.40290 20915 ft 399 kts
2026-05-04 15:49 49.77708 -1.40024 21506 ft 402 kts
2026-05-04 15:49 49.80373 -1.39785 22016 ft 406 kts
2026-05-04 15:49 49.83206 -1.39536 22542 ft 410 kts
2026-05-04 15:49 49.86066 -1.39286 23061 ft 414 kts
2026-05-04 15:50 49.88913 -1.39036 23565 ft 417 kts
2026-05-04 15:50 49.91827 -1.38777 23994 ft 421 kts
2026-05-04 15:50 49.94761 -1.38515 24407 ft 424 kts
2026-05-04 15:50 49.97763 -1.38246 24833 ft 427 kts
2026-05-04 15:51 50.00723 -1.37867 25264 ft 430 kts
2026-05-04 15:51 50.03696 -1.37126 25656 ft 433 kts
2026-05-04 15:51 50.06681 -1.36382 26021 ft 436 kts
2026-05-04 15:51 50.09706 -1.35634 26396 ft 439 kts
2026-05-04 15:52 50.12693 -1.34897 26763 ft 442 kts
2026-05-04 15:52 50.15705 -1.34152 27129 ft 445 kts
2026-05-04 15:52 50.18773 -1.33389 27496 ft 448 kts
2026-05-04 15:52 50.21857 -1.32617 27845 ft 451 kts
2026-05-04 15:53 50.24956 -1.31841 27983 ft 449 kts
2026-05-04 15:53 50.27976 -1.31081 28003 ft 432 kts
2026-05-04 15:53 50.33832 -1.29614 28005 ft 423 kts
2026-05-04 15:54 50.39638 -1.28159 28001 ft 422 kts
2026-05-04 15:54 50.45440 -1.26691 28002 ft 423 kts
2026-05-04 15:55 50.51108 -1.24297 28000 ft 423 kts 25°
2026-05-04 15:55 50.53685 -1.22089 28000 ft 421 kts 34°
2026-05-04 15:55 50.56158 -1.19610 27999 ft 422 kts 34°
2026-05-04 15:56 50.58633 -1.17148 27998 ft 422 kts 33°
2026-05-04 15:56 50.61117 -1.14687 28001 ft 422 kts 33°
2026-05-04 15:56 50.66085 -1.09766 27997 ft 422 kts 33°
2026-05-04 15:57 50.68569 -1.07299 27997 ft 422 kts 33°
2026-05-04 15:57 50.71055 -1.04821 27999 ft 422 kts 33°
2026-05-04 15:57 50.73535 -1.02345 27999 ft 422 kts 34°
2026-05-04 15:57 50.76009 -0.99865 28000 ft 422 kts 34°
2026-05-04 15:58 50.78491 -0.97367 28000 ft 422 kts 34°
2026-05-04 15:58 50.80987 -0.94919 28000 ft 423 kts 30°
2026-05-04 15:58 50.83660 -0.92983 27985 ft 423 kts 19°
2026-05-04 15:58 50.86451 -0.91536 27996 ft 422 kts 17°
2026-05-04 15:59 50.92040 -0.88676 28009 ft 422 kts 17°
2026-05-04 15:59 50.97579 -0.85802 28012 ft 422 kts 17°
2026-05-04 16:00 51.03153 -0.82899 28013 ft 421 kts 17°
2026-05-04 16:00 51.08722 -0.79999 28009 ft 421 kts 17°
2026-05-04 16:01 51.14290 -0.77100 28011 ft 421 kts 17°
2026-05-04 16:01 51.19863 -0.74184 28010 ft 421 kts 17°
2026-05-04 16:02 51.25430 -0.71265 28010 ft 421 kts 17°
2026-05-04 16:03 51.33771 -0.66870 28032 ft 421 kts 18°
2026-05-04 16:03 51.39327 -0.63934 28041 ft 420 kts 18°
2026-05-04 16:04 51.44862 -0.61005 28045 ft 419 kts 18°
2026-05-04 16:04 51.53155 -0.56602 28043 ft 418 kts 18°
2026-05-04 16:05 51.58678 -0.53664 28039 ft 418 kts 18°
2026-05-04 16:06 51.66938 -0.49262 28043 ft 416 kts 18°
2026-05-04 16:07 51.77068 -0.44380 28063 ft 413 kts
2026-05-04 16:07 51.85355 -0.46693 28066 ft 403 kts 330°
2026-05-04 16:08 51.87778 -0.48934 28066 ft 400 kts 326°
2026-05-04 16:08 51.94924 -0.55906 27572 ft 400 kts 327°
2026-05-04 16:09 51.99702 -0.60571 28050 ft 400 kts 326°
2026-05-04 16:10 52.09197 -0.69885 28057 ft 397 kts 326°
2026-05-04 16:11 52.18633 -0.79183 28052 ft 396 kts 326°
2026-05-04 16:12 52.32741 -0.93193 27785 ft 389 kts 326°
2026-05-04 16:13 52.37325 -0.97751 26923 ft 382 kts 326°
2026-05-04 16:13 52.41832 -1.02253 26031 ft 377 kts 327°
2026-05-04 16:14 52.46280 -1.06724 25113 ft 373 kts 327°
2026-05-04 16:14 52.50687 -1.11165 24178 ft 370 kts 327°
2026-05-04 16:15 52.57248 -1.17757 22703 ft 365 kts 327°
2026-05-04 16:16 52.61517 -1.22058 21796 ft 360 kts 327°
2026-05-04 16:16 52.67860 -1.28478 20473 ft 354 kts 327°
2026-05-04 16:17 52.72033 -1.32718 19599 ft 351 kts 327°
2026-05-04 16:18 52.78255 -1.39066 18315 ft 349 kts 327°
2026-05-04 16:18 52.80318 -1.41179 17848 ft 347 kts 327°
2026-05-04 16:19 52.86422 -1.47431 16555 ft 341 kts 327°
2026-05-04 16:19 52.90430 -1.51541 15709 ft 338 kts 327°
2026-05-04 16:20 52.96384 -1.57667 14466 ft 334 kts 327°
2026-05-04 16:20 53.00298 -1.61705 13730 ft 328 kts 327°
2026-05-04 16:21 53.05860 -1.67927 12800 ft 309 kts 313°
2026-05-04 16:22 53.08536 -1.73059 12533 ft 277 kts 309°
2026-05-04 16:22 53.12102 -1.79982 11358 ft 255 kts 310°
2026-05-04 16:23 53.15505 -1.86587 9856 ft 249 kts 310°
2026-05-04 16:24 53.19947 -1.95251 8299 ft 243 kts 309°
2026-05-04 16:25 53.22135 -1.99529 8069 ft 243 kts 311°
2026-05-04 16:26 53.27718 -1.98609 7088 ft 245 kts 49°
2026-05-04 16:26 53.30938 -1.92010 6109 ft 242 kts 50°
2026-05-04 16:27 53.33049 -1.87628 6056 ft 242 kts 50°
2026-05-04 16:28 53.36469 -1.81581 6066 ft 240 kts 19°
2026-05-04 16:28 53.40925 -1.83384 5693 ft 213 kts 330°
2026-05-04 16:29 53.45758 -1.87802 4981 ft 192 kts 330°
2026-05-04 16:30 53.49196 -1.91099 4241 ft 187 kts 316°
2026-05-04 16:31 53.49967 -1.94987 3891 ft 172 kts 267°
2026-05-04 16:31 53.48494 -2.00159 3507 ft 167 kts 231°
2026-05-04 16:32 53.46319 -2.04717 3455 ft 166 kts 232°
2026-05-04 16:33 53.44894 -2.07696 3050 ft 166 kts 232°
2026-05-04 16:33 53.43447 -2.10714 2484 ft 165 kts 232°
2026-05-04 16:34 53.42015 -2.13698 2059 ft 164 kts 232°
2026-05-04 16:34 53.41309 -2.15169 1815 ft 156 kts 232°
2026-05-04 16:35 53.39456 -2.19029 1193 ft 135 kts 232°
2026-05-04 16:35 53.37709 -2.22709 693 ft 136 kts 231°
2026-05-04 16:36 53.37101 -2.23929 572 ft 137 kts 231°
2026-05-04 16:36 53.35895 -2.26415 293 ft 137 kts 233°
2026-05-04 16:37 53.35071 -2.28124 235 ft 17 kts 231°
2026-05-04 16:37 53.35033 -2.28210 232 ft 25 kts 235°
2026-05-04 16:37 53.34945 -2.28628 229 ft 9 kts 261°
2026-05-04 16:38 53.34997 -2.28754 227 ft 8 kts
2026-05-04 16:39 53.35104 -2.28563 230 ft 8 kts 51°
2026-05-04 16:39 53.35201 -2.28364 231 ft 11 kts 51°
2026-05-04 16:40 53.35305 -2.28165 234 ft 12 kts 45°
2026-05-04 16:40 53.35429 -2.27962 237 ft 14 kts 44°
2026-05-04 16:41 53.35547 -2.27905 237 ft 15 kts
2026-05-04 16:41 53.35817 -2.27862 251 ft 11 kts
2026-05-04 16:42 53.36022 -2.27944 255 ft 18 kts 318°
2026-05-04 16:43 53.36205 -2.28234 255 ft 16 kts 314°
2026-05-04 16:43 53.36350 -2.28468 255 ft 13 kts 333°
2026-05-04 16:43 53.36408 -2.28484 255 ft 9 kts 347°
2026-05-04 16:44 53.36505 -2.28625 124 ft 0 kts 343°
2026-05-04 16:45 53.36519 -2.28611 255 ft 1 kts 46°
2026-05-04 16:46 53.36548 -2.28563 255 ft 0 kts 44°